, AK

(GMT )
Anchorage

Weather History for PANC - December, 2013

Change the Weather History Date:

Saturday, December 21, 2013

  Actual Average Record
Temperature  
Mean Temperature 26 °F 19 °F  
Max Temperature 28 °F 25 °F 43 °F (1999)
Min Temperature 23 °F 13 °F -17 °F (1956)
Degree Days  
Heating Degree Days 39    
Month to date heating degree days 1020  
Since 1 July heating degree days 3830  
Cooling Degree Days 0    
Month to date cooling degree days 0  
Year to date cooling degree days 21  
Moisture  
Dew Point 25 °F    
Average Humidity 84    
Maximum Humidity 92    
Minimum Humidity 75    
Precipitation  
Precipitation 0.05 in 0.03 in 0.64 in (1999)
Month to date precipitation 1.42 0.78  
Year to date precipitation 25.79 16.25  
Snow  
Snow 0.70 in 0.60 in 5.30 in (2003)
Month to date snowfall 21.2 11.7  
Since 1 July snowfall 32.4 33.1  
Snow Depth 16.00 in    
Sea Level Pressure  
Sea Level Pressure 29.63 in    
Wind  
Wind Speed 4 mph (North)    
Max Wind Speed 7 mph    
Max Gust Speed -    
Visibility 7 miles    
Events Snow    
T = Trace of Precipitation, MM = Missing Value Source: NWS Daily Summary

Daily Weather History Graph

Daily Weather History Graph

Search for Another Location

Airport or City:

Trip Planner

Search our weather history database for the weather conditions in past years. The results will help you decide how hot, cold, wet, or windy it might be!

Date:

Astronomy

Dec. 21, 2013 Rise Set
Actual Time 10:14 AM AKST 3:42 PM AKST
Civil Twilight 9:12 AM AKST 4:44 PM AKST
Nautical Twilight 8:12 AM AKST 5:44 PM AKST
Astronomical Twilight 7:18 AM AKST 6:38 PM AKST
Moon 9:26 PM AKST (12/21) 11:33 AM AKST (12/21)
Length of Visible Light 7h 32m
Length of Day
5h 28m
Waning Gibbous, 83% of the Moon is Illuminated
Dec 21
Waning Gibbous
Dec 25
Last Quarter
Jan 1
New
Jan 7
First Quarter
Jan 15
Full

Hourly Weather History & Observations

Time (AKST) Temp. Windchill Dew Point Humidity Pressure Visibility Wind Dir Wind Speed Gust Speed Precip Events Conditions
12:53 AM 25.0 °F 19.3 °F 21.9 °F 88% 29.67 in 10.0 mi NNE 4.6 mph - N/A   Overcast
1:53 AM 25.0 °F 19.3 °F 21.9 °F 88% 29.68 in 10.0 mi North 4.6 mph - N/A   Overcast
2:53 AM 26.1 °F 20.5 °F 21.9 °F 84% 29.67 in 10.0 mi NNE 4.6 mph - N/A   Overcast
3:53 AM 26.1 °F 21.9 °F 23.0 °F 88% 29.67 in 10.0 mi North 3.5 mph - N/A   Overcast
4:53 AM 26.1 °F 20.5 °F 23.0 °F 88% 29.67 in 10.0 mi North 4.6 mph - N/A   Overcast
5:53 AM 26.1 °F 21.9 °F 23.0 °F 88% 29.68 in 10.0 mi NNW 3.5 mph - N/A   Overcast
6:53 AM 26.1 °F 21.9 °F 23.0 °F 88% 29.67 in 10.0 mi North 3.5 mph - N/A   Overcast
7:53 AM 27.0 °F 21.6 °F 23.0 °F 85% 29.66 in 10.0 mi North 4.6 mph - N/A   Overcast
8:53 AM 27.0 °F 23.0 °F 24.1 °F 89% 29.67 in 10.0 mi Variable 3.5 mph - N/A   Overcast
9:53 AM 27.0 °F 21.6 °F 24.1 °F 89% 29.67 in 10.0 mi North 4.6 mph - 0.00 in Snow Light Snow
10:53 AM 28.0 °F 22.8 °F 21.0 °F 75% 29.68 in 10.0 mi Variable 4.6 mph - 0.00 in Snow Light Snow
11:53 AM 28.0 °F - 24.1 °F 85% 29.67 in 10.0 mi Calm Calm - 0.00 in   Overcast
12:53 PM 28.9 °F 22.8 °F 25.0 °F 85% 29.66 in 10.0 mi NNW 5.8 mph - 0.00 in Snow Light Snow
1:36 PM 28.4 °F 21.2 °F 26.6 °F 93% 29.64 in 2.5 mi NNW 6.9 mph - 0.00 in Snow Light Snow
1:53 PM 28.9 °F 22.8 °F 27.0 °F 92% 29.65 in 2.0 mi North 5.8 mph - 0.00 in Snow Light Snow
2:27 PM 28.4 °F 23.3 °F 26.6 °F 93% 29.63 in 3.0 mi North 4.6 mph - 0.01 in Snow Light Snow
2:53 PM 28.9 °F 23.9 °F 27.0 °F 92% 29.62 in 4.0 mi North 4.6 mph - 0.01 in Snow Light Snow
3:53 PM 28.9 °F 21.9 °F 27.0 °F 92% 29.61 in 1.5 mi North 6.9 mph - 0.00 in Snow Light Snow
4:27 PM 28.4 °F 23.3 °F 26.6 °F 93% 29.60 in 2.0 mi NNW 4.6 mph - 0.01 in Snow Light Snow
4:48 PM 28.4 °F 23.3 °F 26.6 °F 93% 29.60 in 2.0 mi NNW 4.6 mph - 0.02 in Snow Light Snow
4:53 PM 28.9 °F 23.9 °F 27.0 °F 92% 29.60 in 2.0 mi NW 4.6 mph - 0.02 in Snow Light Snow
5:30 PM 28.4 °F 24.6 °F 26.6 °F 93% 29.59 in 4.0 mi North 3.5 mph - 0.01 in Snow Light Snow
5:53 PM 28.9 °F 25.2 °F 27.0 °F 92% 29.60 in 4.0 mi North 3.5 mph - 0.01 in Snow Light Snow
6:53 PM 28.9 °F 25.2 °F 27.0 °F 92% 29.59 in 4.0 mi North 3.5 mph - 0.01 in Snow Light Snow
7:53 PM 28.9 °F 23.9 °F 27.0 °F 92% 29.57 in 4.0 mi North 4.6 mph - 0.00 in Snow Light Snow
8:53 PM 30.0 °F 25.2 °F 27.0 °F 88% 29.56 in 3.0 mi North 4.6 mph - 0.02 in Snow Light Snow
9:53 PM 28.9 °F 25.2 °F 27.0 °F 92% 29.53 in 7.0 mi North 3.5 mph - 0.00 in Snow Light Snow
10:53 PM 28.9 °F 23.9 °F 27.0 °F 92% 29.51 in 7.0 mi NNE 4.6 mph - 0.00 in Snow Light Snow
11:53 PM 30.0 °F 25.2 °F 28.0 °F 92% 29.49 in 10.0 mi NE 4.6 mph - 0.00 in   Overcast